SCP
0 -0 0 0 0 0 0 0 0 0 0 0 0 0 0 0 0 0 0 0 0 0 0 0 0 0 0 0 0 0 0 0 0 0 0 0 0 0
0 0 0 0 0 0 0 0 0 0 0 0 0 0 0 0 0 0 0 0 0 0 0 0 0 0 0 0 0 0 0 0 0 0 0 0 0 0
0 0 0 0 0 0 0 0 0 0 0 0 0 0 0 0 0 0 0 0 0 0 0 0 0 0 0 0 0 0 0 0 0 0 0 0 0 0
0 0 0 0 0 0 0 0 0 0 0 0 0 0 0 0 0 0 0 0 0 0 0 0 0 0 0 0 0 0 0 0 0 0 0 0 0 0
0 0 0 0 0 0 0 0 0 0 0 0 0 0 0 0 0 0 0 0 0 0 0 0 0 0 0 0 0 0 0 0 0 0 0 0 0 0
0 0 0 0 0 0 0 0 0 0 0 0 0 0 0 0 0 0 0 0 0 0 0 0 0 0 0 0 0 0 0 0 0 0 0 0 0 0
0 0 0 0 0 0 0 0 0 0 0 0 0 0 0 0 0 0 0 0 0 0 0 0 0 0 0 0 0 0 0 0 0 0 0 0 -0 0
0 0 0 0 0 0 0 0 0 0 0 0 0 0 0 0 0 0 0 0 0 0 0 0 0 0 0 0 0 0 0 -0 -0 -0 -0 -0 -0 -0
0 0 0 0 0 0 0 0 0 0 0 0 0 0 0 0 0 0 0 0 0 0 0 0 0 0 0 0 0 0 -0 0 -0 -0 -0 -0 0 0
0 0 0 0 0 0 0 0 0 0 0 0 0 0 0 0 0 0 0 0 0 0 0 0 0 0 0 0 0 0 -0 0 -0 -0 0 0 -0 0
0 0 0 0 0 0 0 0 0 0 0 0 0 0 0 0 0 0 0 0 0 0 0 0 0 0 0 0 0 0 0 0 0 0 0 0 -0 -0
0 0 0 0 0 0 0 0 0 0 0 0 0 0 0 0 0 0 0 0 0 0 0 0 0 0 0 0 0 0 0 0 0 0 0 0 -0 0
0 0 0 0 0 0 0 0 0 0 0 0 0 0 0 0 0 0 0 0 0 0 0 0 0 0 0 0 0 0 0 0 0 0 0 0 -0 -0
0 0 0 0 0 0 0 0 0 0 0 0 0 0 0 0 0 0 0 0 0 0 0 0 0 0 0 0 0 0 0 0 0 0 0 0 0 0
0 0 0 0 0 0 0 0 0 0 0 0 0 0 0 0 0 0 0 0 0 0 0 0 0 0 0 0 0 0 0 0 0 0 0 0 0 0
0 0 0 0 0 0 0 0 0 0 0 0 0 0 0 0 0 0 0 0 0 0 0 0 0 0 0 0 0 0 0 0 0 0 0 0 0 0
0 0 0 0 0 0 0 0 0 0 0 0 0 0 0 0 0 0 0 0 0 0 0 0 0 0 0 0 0 0 0 0 0 0 0 0 -0 -0
0 0 0 0 0 0 0 0 0 0 0 0 0 0 0 0 0 0 0 0 0 0 0 0 0 0 0 0 -0 0 0 0 0 -0 -0 -0 -0 -0
0 0 0 0 0 0 0 0 0 0 0 0 0 0 0 0 0 0 0 0 0 0 0 0 0 0 0 0 0 -0 0 0 0 0 -0 -0 -0 -0
0 0 0 0 0 0 0 0 0 0 0 0 0 0 0 0 0 0 0 0 0 0 0 0 0 0 0 0 0 0 -0 0 0 0 0 0 0 0
0 0 0 0 0 0 0 0 0 0 0 0 0 0 0 0 0 0 0 0 0 0 0 0 0 0 0 0 0 0 0 -0 -0 0 0 0 0 0
0 0 0 0 0 0 0 0 0 0 0 0 0 0 0 0 0 0 0 0 0 0 0 0 0 0 0 0 0 0 0 0 0 -0 -0 -0 0 0
0 0 0 0 0 0 0 0 0 0 0 0 0 0 0 0 0 0 0 0 0 0 0 0 0 0 0 0 0 0 0 0 0 0 0 0 -0 0
Wind_Speed_500mb
30 31 26 28 29 25 24 24 25 33 43 31 47 43 45 48 50 58 58 61 62 68 72 71 62 56 59 60 61 62 62 61 60 58 58 58 61 58
29 31 30 32 26 27 27 22 22 28 37 45 46 45 49 48 51 60 61 61 56 63 63 73 61 58 60 62 62 61 59 56 56 56 58 58 57 56
29 30 32 34 30 30 29 25 26 29 39 49 43 45 50 52 56 57 53 54 54 61 69 63 67 69 62 52 55 58 52 53 55 58 58 59 58 57
29 30 32 34 33 33 32 31 30 35 37 48 47 47 49 51 57 58 56 53 58 55 64 62 63 66 55 58 63 59 52 50 57 59 63 62 62 63
29 31 33 35 33 38 38 34 39 45 39 40 48 45 46 51 61 54 54 53 51 58 51 56 60 66 57 61 62 54 53 59 63 59 58 62 66 62
30 32 34 37 40 44 43 42 46 44 38 39 42 45 44 52 53 59 59 55 58 48 51 58 58 57 56 58 53 55 61 60 61 57 58 56 51 52
31 32 34 37 43 45 47 49 47 41 40 38 41 42 48 57 57 59 58 61 58 51 60 60 59 57 55 48 49 61 60 62 56 54 53 52 50 48
28 30 33 40 45 52 51 50 49 44 38 38 41 45 48 51 55 59 62 65 64 54 63 59 55 56 51 42 56 61 59 59 55 53 52 49 46 43
28 29 30 35 42 46 48 47 41 44 41 43 42 43 50 52 55 55 52 54 58 60 56 60 59 60 42 38 55 56 59 59 56 54 51 48 41 39
29 31 34 36 44 46 48 43 40 37 40 39 42 43 45 48 42 44 48 50 49 49 44 59 62 60 35 34 50 64 62 58 53 53 52 47 38 39
29 32 34 36 45 48 48 44 42 43 42 41 40 40 42 36 36 46 51 55 56 59 36 61 59 58 34 50 55 58 61 55 53 53 54 52 43 39
28 31 40 40 45 46 45 38 42 48 46 43 43 41 41 35 32 36 43 48 49 53 51 61 46 48 32 48 54 55 56 54 55 52 52 54 50 42
24 27 28 41 41 42 43 39 45 46 44 43 43 43 39 36 36 38 39 40 40 44 47 43 46 47 35 45 51 52 55 55 56 57 54 54 53 51
27 31 35 42 39 33 35 40 42 43 42 40 42 46 39 41 43 42 41 34 26 34 34 34 36 37 39 39 52 51 49 50 54 58 57 54 55 56
28 32 37 40 38 36 37 40 41 42 40 38 41 44 36 38 38 40 38 35 22 24 29 32 28 35 33 32 39 49 45 46 51 55 55 59 59 57
30 33 36 39 40 36 31 34 36 37 37 36 39 42 37 36 36 39 45 39 32 32 24 25 27 32 44 37 32 40 41 35 42 46 50 54 56 59
29 29 30 32 34 30 29 31 34 33 34 37 39 41 40 37 35 34 38 35 31 34 36 28 26 28 33 43 35 34 34 35 34 37 41 48 52 52
26 26 30 34 34 30 31 31 35 34 34 37 38 39 39 38 35 33 33 39 32 30 31 30 28 23 20 24 39 28 27 29 30 32 35 41 47 48
23 26 30 33 32 28 28 29 34 33 34 34 37 36 37 34 33 30 33 33 32 27 27 28 27 25 21 23 31 38 25 21 23 28 34 37 40 46
21 24 26 27 28 27 28 31 33 32 32 34 34 35 34 31 31 27 30 31 27 23 21 24 25 22 22 20 26 32 36 20 17 16 21 27 30 33
24 25 26 27 28 30 28 29 29 31 30 33 31 30 30 28 26 26 26 27 23 17 19 24 22 26 23 17 19 24 31 36 31 21 10 11 21 27
25 25 26 28 31 30 26 27 30 30 30 31 29 27 25 23 22 24 23 20 17 15 18 20 20 19 18 17 20 22 24 27 31 31 32 31 23 15
26 26 27 29 31 29 25 26 30 29 29 29 26 23 22 20 19 22 18 15 13 14 15 14 14 16 17 21 20 22 23 24 23 28 37 36 34 33
Wind_Direction_500mb
31 27 22 9 7 0 355 350 340 328 331 333 330 328 328 331 326 330 329 324 343 335 331 331 336 335 330 326 323 321 320 317 316 315 315 313 313 311
27 20 16 9 2 357 351 343 336 327 315 325 325 328 330 330 330 333 330 338 331 325 329 333 333 334 331 327 325 323 322 318 317 317 317 316 314 312
21 16 11 7 2 354 350 345 338 329 316 322 327 330 331 334 334 333 336 334 329 329 329 335 338 334 333 334 334 330 327 325 321 320 318 317 317 314
16 12 8 4 1 352 351 343 335 332 324 322 330 332 335 334 337 337 337 333 333 328 335 336 334 333 341 343 343 339 336 335 328 323 320 321 318 314
12 9 5 3 356 353 351 342 336 335 333 325 326 332 332 339 338 341 337 339 337 336 338 338 335 337 344 340 336 335 328 326 329 323 319 317 317 318
7 5 4 359 354 351 351 342 339 340 332 330 329 330 336 336 339 337 340 342 342 341 339 340 341 337 343 335 335 332 333 332 328 325 322 324 325 324
2 1 356 353 352 351 351 346 342 339 337 332 330 330 335 336 340 339 337 339 341 341 339 345 341 344 339 342 338 340 343 344 343 340 336 334 334 332
358 355 352 351 349 351 349 346 347 345 340 333 331 329 329 333 335 336 336 339 340 348 342 341 346 344 345 344 342 346 354 354 351 349 348 350 350 350
353 351 352 343 347 348 348 350 344 339 337 334 329 328 326 330 329 334 334 337 334 343 338 340 345 352 355 347 348 358 2 359 358 359 0 1 3 10
348 346 348 344 342 347 347 348 342 339 337 338 331 329 329 334 337 332 338 331 340 344 343 340 352 350 359 358 1 1 7 6 10 10 12 17 28 32
342 341 344 343 344 346 347 343 341 341 343 342 342 339 342 346 349 343 339 342 341 350 344 343 350 351 14 14 8 3 10 18 22 22 24 29 42 42
339 340 342 346 343 342 347 342 339 344 345 348 351 349 352 351 343 341 341 340 342 344 341 345 359 359 345 12 11 10 15 29 33 33 35 40 43 49
336 335 330 343 343 341 342 342 343 346 349 349 350 351 355 349 348 354 356 348 341 336 337 354 2 5 0 352 8 16 23 29 37 43 46 48 46 47
334 337 334 341 344 340 339 341 345 351 349 351 349 353 353 350 352 359 352 344 342 334 347 355 358 2 1 359 6 15 33 34 42 47 51 56 59 60
333 335 337 342 346 346 344 348 352 349 351 348 349 352 352 350 350 351 351 2 4 352 357 1 15 17 18 12 9 20 29 36 44 49 51 53 54 55
334 335 339 344 347 348 346 347 348 349 349 345 346 351 355 352 354 356 353 5 4 6 359 6 7 10 16 22 29 28 34 36 48 48 51 56 57 57
328 335 339 338 341 341 346 347 350 346 347 347 349 351 353 352 353 359 353 359 358 357 3 16 16 1 353 6 34 41 35 36 49 51 48 53 50 46
327 331 333 337 340 341 345 346 348 347 346 347 348 350 351 350 354 5 354 356 355 356 360 7 17 27 352 348 30 37 44 39 33 44 48 49 50 45
322 326 331 337 341 337 338 341 342 344 344 343 348 349 349 352 357 3 357 351 358 1 1 7 13 25 23 23 11 28 29 42 36 29 38 46 46 44
313 318 324 330 332 329 337 338 345 345 343 345 348 349 348 352 357 0 359 350 354 360 3 8 20 31 23 20 19 16 30 30 35 39 35 33 40 41
301 311 318 326 330 330 337 336 342 341 342 344 349 351 351 352 357 359 359 348 357 5 5 11 22 33 28 19 25 21 22 33 36 33 28 46 35 40
294 303 311 321 327 332 336 336 342 341 343 346 349 354 355 356 356 357 352 350 359 0 358 5 22 25 30 29 26 25 31 32 34 48 55 59 64 45
289 298 307 318 328 333 336 336 339 341 341 344 348 354 357 356 360 357 344 349 352 353 0 2 13 17 30 25 30 27 29 32 34 40 52 52 53 53
Wind_Speed_850mb
30 31 26 28 29 25 24 24 25 33 43 31 47 43 45 48 50 58 58 61 62 68 72 71 62 56 59 60 61 62 62 61 60 58 58 58 61 58
29 31 30 32 26 27 27 22 22 28 37 45 46 45 49 48 51 60 61 61 56 63 63 73 61 58 60 62 62 61 59 56 56 56 58 58 57 56
29 30 32 34 30 30 29 25 26 29 39 49 43 45 50 52 56 57 53 54 54 61 69 63 67 69 62 52 55 58 52 53 55 58 58 59 58 57
29 30 32 34 33 33 32 31 30 35 37 48 47 47 49 51 57 58 56 53 58 55 64 62 63 66 55 58 63 59 52 50 57 59 63 62 62 63
29 31 33 35 33 38 38 34 39 45 39 40 48 45 46 51 61 54 54 53 51 58 51 56 60 66 57 61 62 54 53 59 63 59 58 62 66 62
30 32 34 37 40 44 43 42 46 44 38 39 42 45 44 52 53 59 59 55 58 48 51 58 58 57 56 58 53 55 61 60 61 57 58 56 51 52
31 32 34 37 43 45 47 49 47 41 40 38 41 42 48 57 57 59 58 61 58 51 60 60 59 57 55 48 49 61 60 62 56 54 53 52 50 48
28 30 33 40 45 52 51 50 49 44 38 38 41 45 48 51 55 59 62 65 64 54 63 59 55 56 51 42 56 61 59 59 55 53 52 49 46 43
28 29 30 35 42 46 48 47 41 44 41 43 42 43 50 52 55 55 52 54 58 60 56 60 59 60 42 38 55 56 59 59 56 54 51 48 41 39
29 31 34 36 44 46 48 43 40 37 40 39 42 43 45 48 42 44 48 50 49 49 44 59 62 60 35 34 50 64 62 58 53 53 52 47 38 39
29 32 34 36 45 48 48 44 42 43 42 41 40 40 42 36 36 46 51 55 56 59 36 61 59 58 34 50 55 58 61 55 53 53 54 52 43 39
28 31 40 40 45 46 45 38 42 48 46 43 43 41 41 35 32 36 43 48 49 53 51 61 46 48 32 48 54 55 56 54 55 52 52 54 50 42
24 27 28 41 41 42 43 39 45 46 44 43 43 43 39 36 36 38 39 40 40 44 47 43 46 47 35 45 51 52 55 55 56 57 54 54 53 51
27 31 35 42 39 33 35 40 42 43 42 40 42 46 39 41 43 42 41 34 26 34 34 34 36 37 39 39 52 51 49 50 54 58 57 54 55 56
28 32 37 40 38 36 37 40 41 42 40 38 41 44 36 38 38 40 38 35 22 24 29 32 28 35 33 32 39 49 45 46 51 55 55 59 59 57
30 33 36 39 40 36 31 34 36 37 37 36 39 42 37 36 36 39 45 39 32 32 24 25 27 32 44 37 32 40 41 35 42 46 50 54 56 59
29 29 30 32 34 30 29 31 34 33 34 37 39 41 40 37 35 34 38 35 31 34 36 28 26 28 33 43 35 34 34 35 34 37 41 48 52 52
26 26 30 34 34 30 31 31 35 34 34 37 38 39 39 38 35 33 33 39 32 30 31 30 28 23 20 24 39 28 27 29 30 32 35 41 47 48
23 26 30 33 32 28 28 29 34 33 34 34 37 36 37 34 33 30 33 33 32 27 27 28 27 25 21 23 31 38 25 21 23 28 34 37 40 46
21 24 26 27 28 27 28 31 33 32 32 34 34 35 34 31 31 27 30 31 27 23 21 24 25 22 22 20 26 32 36 20 17 16 21 27 30 33
24 25 26 27 28 30 28 29 29 31 30 33 31 30 30 28 26 26 26 27 23 17 19 24 22 26 23 17 19 24 31 36 31 21 10 11 21 27
25 25 26 28 31 30 26 27 30 30 30 31 29 27 25 23 22 24 23 20 17 15 18 20 20 19 18 17 20 22 24 27 31 31 32 31 23 15
26 26 27 29 31 29 25 26 30 29 29 29 26 23 22 20 19 22 18 15 13 14 15 14 14 16 17 21 20 22 23 24 23 28 37 36 34 33
Wind_Direction_850mb
31 27 22 9 7 0 355 350 340 328 331 333 330 328 328 331 326 330 329 324 343 335 331 331 336 335 330 326 323 321 320 317 316 315 315 313 313 311
27 20 16 9 2 357 351 343 336 327 315 325 325 328 330 330 330 333 330 338 331 325 329 333 333 334 331 327 325 323 322 318 317 317 317 316 314 312
21 16 11 7 2 354 350 345 338 329 316 322 327 330 331 334 334 333 336 334 329 329 329 335 338 334 333 334 334 330 327 325 321 320 318 317 317 314
16 12 8 4 1 352 351 343 335 332 324 322 330 332 335 334 337 337 337 333 333 328 335 336 334 333 341 343 343 339 336 335 328 323 320 321 318 314
12 9 5 3 356 353 351 342 336 335 333 325 326 332 332 339 338 341 337 339 337 336 338 338 335 337 344 340 336 335 328 326 329 323 319 317 317 318
7 5 4 359 354 351 351 342 339 340 332 330 329 330 336 336 339 337 340 342 342 341 339 340 341 337 343 335 335 332 333 332 328 325 322 324 325 324
2 1 356 353 352 351 351 346 342 339 337 332 330 330 335 336 340 339 337 339 341 341 339 345 341 344 339 342 338 340 343 344 343 340 336 334 334 332
358 355 352 351 349 351 349 346 347 345 340 333 331 329 329 333 335 336 336 339 340 348 342 341 346 344 345 344 342 346 354 354 351 349 348 350 350 350
353 351 352 343 347 348 348 350 344 339 337 334 329 328 326 330 329 334 334 337 334 343 338 340 345 352 355 347 348 358 2 359 358 359 0 1 3 10
348 346 348 344 342 347 347 348 342 339 337 338 331 329 329 334 337 332 338 331 340 344 343 340 352 350 359 358 1 1 7 6 10 10 12 17 28 32
342 341 344 343 344 346 347 343 341 341 343 342 342 339 342 346 349 343 339 342 341 350 344 343 350 351 14 14 8 3 10 18 22 22 24 29 42 42
339 340 342 346 343 342 347 342 339 344 345 348 351 349 352 351 343 341 341 340 342 344 341 345 359 359 345 12 11 10 15 29 33 33 35 40 43 49
336 335 330 343 343 341 342 342 343 346 349 349 350 351 355 349 348 354 356 348 341 336 337 354 2 5 0 352 8 16 23 29 37 43 46 48 46 47
334 337 334 341 344 340 339 341 345 351 349 351 349 353 353 350 352 359 352 344 342 334 347 355 358 2 1 359 6 15 33 34 42 47 51 56 59 60
333 335 337 342 346 346 344 348 352 349 351 348 349 352 352 350 350 351 351 2 4 352 357 1 15 17 18 12 9 20 29 36 44 49 51 53 54 55
334 335 339 344 347 348 346 347 348 349 349 345 346 351 355 352 354 356 353 5 4 6 359 6 7 10 16 22 29 28 34 36 48 48 51 56 57 57
328 335 339 338 341 341 346 347 350 346 347 347 349 351 353 352 353 359 353 359 358 357 3 16 16 1 353 6 34 41 35 36 49 51 48 53 50 46
327 331 333 337 340 341 345 346 348 347 346 347 348 350 351 350 354 5 354 356 355 356 360 7 17 27 352 348 30 37 44 39 33 44 48 49 50 45
322 326 331 337 341 337 338 341 342 344 344 343 348 349 349 352 357 3 357 351 358 1 1 7 13 25 23 23 11 28 29 42 36 29 38 46 46 44
313 318 324 330 332 329 337 338 345 345 343 345 348 349 348 352 357 0 359 350 354 360 3 8 20 31 23 20 19 16 30 30 35 39 35 33 40 41
301 311 318 326 330 330 337 336 342 341 342 344 349 351 351 352 357 359 359 348 357 5 5 11 22 33 28 19 25 21 22 33 36 33 28 46 35 40
294 303 311 321 327 332 336 336 342 341 343 346 349 354 355 356 356 357 352 350 359 0 358 5 22 25 30 29 26 25 31 32 34 48 55 59 64 45
289 298 307 318 328 333 336 336 339 341 341 344 348 354 357 356 360 357 344 349 352 353 0 2 13 17 30 25 30 27 29 32 34 40 52 52 53 53